Location: Arpajon
(44.9026°N, 2.4581°E)
Time: 13:21:40
(UTC+00:00)

Daily predictions for brighter satellites

Satellite Brightness Start Highest point End
(mag) Time Altitude Azimuth Time Altitude Azimuth Time Altitude Azimuth
USA 290 3.9 16:45:36 10° NNE 16:47:44 16° ENE 16:49:51 10° E
CBERS-1 4.0 16:42:39 10° SSE 16:47:46 84° ENE 16:52:54 10° NNW
BREEZE-M DEB (TANK) 4.0 16:49:50 10° WNW 16:52:25 35° N 16:59:03 10° ENE
NOSS 2-2 (C) 3.2 16:49:33 10° SW 16:52:52 57° NW 16:55:50 10° NNE
SMAP 3.2 16:49:19 10° SSE 16:53:50 54° ENE 16:58:23 10° N
Cosmos 1626 Rocket 3.6 16:50:02 10° N 16:54:17 54° ENE 16:58:29 10° SSE
CZ-2D R/B 3.6 16:51:41 10° SE 16:54:24 27° ENE 16:57:07 10° N
NOSS 3-2 (C) 3.9 16:53:29 10° S 16:57:48 32° ESE 17:02:36 11° NE
Thor Agena Rocket 3.5 16:53:25 10° SSE 16:58:38 77° ENE 17:03:50 10° NNW
NOSS 3-2 (A) 3.1 16:54:19 10° SSW 16:59:14 85° SE 17:05:07 10° NE
Landsat 7 4.0 16:55:33 10° SE 17:00:00 48° ENE 17:04:29 10° N
Cosmos 1634 Rocket 4.1 16:56:31 10° S 17:02:43 80° W 17:08:55 10° N
Cosmos 2151 3.6 16:59:09 10° N 17:02:56 33° ENE 17:06:41 10° SE
BlueWalker 3 1.9 17:01:22 10° NW 17:04:56 54° NNE 17:08:31 10° ESE
Cosmos 1743 2.7 17:04:32 10° N 17:07:37 38° ENE 17:10:40 10° SSE
ATLAS CENTAUR R/B 1.3 17:05:13 10° NNW 17:08:13 33° NE 17:11:07 10° ESE
Cosmos 1484 Rocket 3.9 17:04:57 10° S 17:08:20 43° W 17:11:43 10° NNW
Lacrosse 4 Rocket 3.1 17:05:54 10° WSW 17:09:24 27° NW 17:12:52 10° N
UNK 3.7 17:05:13 10° NNE 17:09:49 79° ESE 17:14:23 10° S
Cosmos 1544 Rocket 3.5 17:05:40 10° S 17:10:01 74° E 17:14:27 10° NNE
Okean 1-7 Rocket 4.3 17:07:03 10° NNE 17:10:57 30° ENE 17:14:49 10° SE
Cosmos 2297 Rocket 2.4 17:06:07 10° NNW 17:11:38 50° ENE 17:17:07 10° SE
Cosmos 1656 3.7 17:06:26 10° SSW 17:12:01 76° ESE 17:17:42 10° NNE
Cosmos 1461 3.8 17:10:03 10° S 17:13:20 27° ESE 17:15:26 17° ENE
IRIDIUM 104 4.4 17:13:19 10° N 17:18:27 55° E 17:23:33 10° SSE
Meteor 1-28 Rocket 4.3 17:15:26 10° N 17:18:35 39° WNW 17:21:43 10° SW
Cosmos 2279 Rocket 4.1 17:13:59 10° S 17:20:11 85° W 17:26:28 10° N
SAR-Lupe-3 4.4 17:23:19 28° ENE 17:23:55 33° E 17:26:14 10° SSE
Lacrosse 5 rocket 2.7 17:22:52 10° W 17:26:02 25° NNW 17:28:28 14° NNE
SKYMED 2 4.2 17:23:07 13° NE 17:26:29 33° E 17:30:25 10° SSE
SAR-Lupe-4 3.4 17:23:33 10° SSE 17:27:06 87° ENE 17:30:41 10° NNW
IRIDIUM 114 4.3 17:22:24 10° N 17:27:37 67° E 17:32:47 10° SSE
MOS 1 Rocket 3.3 17:24:53 10° SSE 17:29:36 66° ENE 17:34:38 10° N
COSMO-SKYMED 1 3.6 17:29:12 22° ENE 17:30:02 24° E 17:33:22 10° SSE
Cosmos 1602 Rocket 3.4 17:27:44 10° N 17:32:08 73° E 17:36:29 10° SSE
Cosmos 2180 Rocket 4.4 17:26:57 10° S 17:33:04 86° E 17:39:15 10° N
SAR-Lupe-1 4.0 17:30:47 10° SSE 17:34:23 89° W 17:38:01 10° NNW
Cosmos 1777 Rocket 3.9 17:30:14 10° S 17:35:27 72° ESE 17:40:21 12° NNE
Cosmos 2084 Rocket 4.0 17:32:29 10° NNW 17:36:22 35° NE 17:37:51 27° E
CZ-4C R/B 3.0 17:29:46 10° NNW 17:36:35 57° NE 17:45:01 10° SE
IRIDIUM 103 4.2 17:31:32 10° N 17:36:48 81° E 17:42:00 10° S
Cosmos 724 4.3 17:31:21 10° NNW 17:37:24 67° NE 17:43:16 10° SE
Cosmos 1980 Rocket 3.5 17:33:38 10° SE 17:37:33 19° E 17:37:44 19° E
CZ-2D R/B 3.9 17:33:59 10° SE 17:37:54 38° ENE 17:41:47 10° N
IRS-P3 4.0 17:34:13 10° SSE 17:39:31 79° ENE 17:44:51 10° NNW
Cosmos 1867 3.9 17:35:20 10° NNW 17:40:31 42° NE 17:44:00 19° ESE
Cosmos 1782 3.7 17:37:45 10° SSW 17:41:13 44° WNW 17:44:41 10° N
YAOGAN 1 3.0 17:39:17 10° SE 17:43:10 36° ENE 17:47:05 10° N
Cosmos 1486 Rocket 4.3 17:44:49 10° SSW 17:49:59 68° WNW 17:55:11 10° NNE
Cosmos 2263 Rocket 2.9 17:48:20 10° N 17:53:17 30° NE 17:53:46 29° ENE
NOSS 2-2 (D) 4.5 17:50:29 10° WSW 17:53:22 27° NW 17:54:45 19° N
Cosmos 1953 Rocket 4.1 17:50:03 10° N 17:57:39 13° SE 17:58:16 10° SE
CENTAUR R/B 4.0 17:50:02 10° W 17:55:14 29° NNW 18:00:51 12° NNE
Cosmos 2360 4.5 17:50:10 10° SW 17:55:50 68° WNW 18:00:53 14° NNE
USA 238 DEB 4.2 17:52:08 10° S 17:57:19 31° ESE 17:58:22 29° E
USA 238 4.2 17:52:16 10° S 17:57:25 30° ESE 17:58:26 29° E
Cosmos 1933 3.0 17:53:46 10° S 17:57:35 84° E 17:59:50 24° N
Cosmos 2266 Rocket 4.0 17:52:05 10° N 17:58:16 80° W 18:04:19 10° S
SL-16 R/B 4.3 17:53:48 10° N 17:59:01 29° WNW 18:04:11 10° WSW
USA 81 4.4 17:55:59 10° N 18:00:57 40° ENE 18:05:52 10° SSE
Cosmos 1607 3.9 17:54:43 10° NW 18:00:59 90° WSW 18:07:17 10° SSE
Cosmos 2227 Rocket 2.2 17:57:02 10° NNW 18:02:36 55° ENE 18:06:42 18° SE
NOSS 2-2 (E) 4.4 17:59:46 10° WSW 18:02:41 28° NW 18:03:40 23° NNW
Cosmos 1825 Rocket 3.4 18:02:07 10° N 18:06:29 83° E 18:10:48 10° S
USA 215 4.0 18:04:26 28° NE 18:06:43 36° NNE 18:12:34 10° NW
ARIANE 5 R/B 3.8 18:02:07 10° S 18:06:51 41° W 18:11:41 10° NNW
BREEZE-M DEB (TANK) 4.2 17:59:50 10° SSW 18:07:46 33° SE 18:09:01 29° ESE
NOAA 6 4.1 18:03:52 10° SE 18:08:46 50° ENE 18:13:41 10° N
SPOT 1/Viking Rocket 3.6 18:04:39 10° SSE 18:09:51 84° WSW 18:15:06 10° NNW
BREEZE M DEB (TANK) 3.5 18:07:50 10° W 18:09:11 30° W 18:09:11 30° W
IRAS Rocket 4.1 18:07:51 10° SSE 18:13:17 68° ENE 18:18:44 10° N
BREEZE-M DEB (TANK) 3.5 18:12:52 10° W 18:13:35 22° W 18:13:35 22° W
Cosmos 990 Rocket 3.8 18:12:59 10° SSW 18:18:06 84° ESE 18:20:06 38° NNE
Cosmos 1697 Rocket 2.6 18:13:41 10° SSW 18:19:17 90° WNW 18:21:56 33° NNE
USA 290 4.2 18:19:15 10° NW 18:22:09 30° WSW 18:25:02 10° SSW
Helios 1A Rocket 4.4 18:25:10 22° S 18:25:10 22° S 18:26:28 10° S
Gbstr 26 Del rocket 3.0 18:22:06 10° SW 18:25:30 59° SSW 18:25:30 59° SSW
Cosmos 1244 Rocket 4.4 18:31:32 10° N 18:37:48 64° E 18:43:57 10° SSE
BlueWalker 3 3.7 18:39:16 10° WNW 18:42:17 25° SW 18:42:35 25° SW
ATLAS CENTAUR R/B 3.6 18:40:40 10° WNW 18:42:47 17° WSW 18:44:08 13° SW
Resurs 1-3 4.3 18:41:08 10° S 18:45:18 50° W 18:49:31 10° NNW
Cosmos 1076 Rocket 4.1 18:42:28 10° NNW 18:46:41 56° W 18:50:54 10° S
NOSS 3-2 (C) 4.0 18:43:28 10° WSW 18:48:21 44° NW 18:50:02 35° N
Cosmos 1655 Rocket 4.4 18:43:11 10° NNW 18:49:21 62° W 18:55:26 10° S
Cosmos 1461 4.3 18:46:28 10° WSW 18:49:36 31° WNW 18:49:36 31° WNW
Cosmos 2297 Rocket 4.2 18:50:43 10° NW 18:55:20 26° WSW 18:59:57 10° SSW
Meteor 2-10 4.3 18:57:20 10° NNW 19:09:10 - S 19:02:07 66° WNW
COSMO-SKYMED 1 4.1 19:05:32 31° WNW 19:05:32 31° WNW 19:09:00 10° SW
Cosmos 2219 4.4 19:04:08 10° NNW 19:07:05 31° NNW 19:07:05 31° NNW
Cosmos 1980 Rocket 2.9 19:15:20 10° SW 19:19:32 48° WSW 19:19:32 48° WSW
CZ-4C R/B 4.0 19:18:06 10° NW 19:25:02 43° WSW 19:33:14 10° S
Cosmos 2263 Rocket 3.5 19:31:57 10° NW 19:35:30 35° WNW 19:35:30 35° WNW
Cosmos 2227 Rocket 4.2 19:41:50 10° NW 19:46:13 24° WSW 19:48:42 18° SW
USA 215 4.3 19:51:47 39° NW 19:51:47 39° NW 19:55:41 10° NW
BREEZE-M DEB (TANK) 4.5 19:50:30 10° WNW 20:28:38 - SE 19:55:13 69° SW
